| time (UTC) | temp F | wind direction | speed MPH | gust MPH | rain 1hr in | rain 24hr in | rain mn in | humidity % | barometer mb |
| 20260503021143 | 41 | 266 | 0.0 | 0.0 | 0.03 | 0.03 | 0.00 | 90 | 1010.4 |
| 20260503020840 | 41 | 266 | 0.0 | 0.0 | 0.03 | 0.03 | 0.00 | 89 | 1010.2 |
| 20260503020537 | 42 | 266 | 0.0 | 0.0 | 0.03 | 0.03 | 0.00 | 89 | 1010.3 |
| 20260503020231 | 42 | 266 | 0.0 | 0.0 | 0.03 | 0.03 | 0.00 | 90 | 1010.3 |
| 20260503015927 | 42 | 266 | 0.0 | 0.0 | 0.03 | 0.03 | 0.00 | 90 | 1010.4 |
| 20260503015624 | 42 | 266 | 0.0 | 0.0 | 0.03 | 0.03 | 0.00 | 90 | 1010.5 |
| 20260503015320 | 42 | 266 | 0.0 | 0.0 | 0.03 | 0.03 | 0.00 | 89 | 1010.6 |
| 20260503015017 | 42 | 266 | 0.0 | 0.0 | 0.03 | 0.03 | 0.00 | 88 | 1010.5 |
| 20260503014714 | 42 | 266 | 0.0 | 0.0 | 0.03 | 0.03 | 0.00 | 88 | 1010.3 |
| 20260503014410 | 42 | 266 | 0.0 | 0.0 | 0.03 | 0.03 | 0.00 | 89 | 1010.6 |
| 20260503014107 | 43 | 266 | 0.0 | 0.0 | 0.03 | 0.03 | 0.00 | 88 | 1010.4 |
| 20260503013803 | 43 | 266 | 0.0 | 0.0 | 0.03 | 0.03 | 0.00 | 89 | 1010.5 |
| 20260503013500 | 43 | 266 | 0.0 | 0.0 | 0.03 | 0.03 | 0.00 | 88 | 1010.5 |
| 20260503013157 | 42 | 266 | 0.0 | 0.0 | 0.03 | 0.03 | 0.00 | 88 | 1010.4 |
| 20260503012853 | 43 | 266 | 0.0 | 0.0 | 0.03 | 0.03 | 0.00 | 89 | 1010.5 |
| 20260503012550 | 43 | 266 | 0.0 | 0.0 | 0.03 | 0.03 | 0.00 | 89 | 1010.6 |
| 20260503012247 | 42 | 266 | 0.0 | 0.0 | 0.03 | 0.03 | 0.00 | 89 | 1010.5 |
| 20260503011943 | 43 | 266 | 0.0 | 0.0 | 0.03 | 0.03 | 0.00 | 89 | 1010.7 |
| 20260503011640 | 43 | 266 | 0.0 | 0.0 | 0.03 | 0.03 | 0.00 | 89 | 1010.4 |
| 20260503011337 | 43 | 266 | 0.0 | 0.0 | 0.03 | 0.03 | 0.00 | 89 | 1010.6 |
| 20260503011033 | 43 | 266 | 0.0 | 0.0 | 0.03 | 0.03 | 0.00 | 89 | 1010.5 |
| 20260503010730 | 43 | 266 | 0.0 | 0.0 | 0.03 | 0.03 | 0.00 | 88 | 1010.6 |
| 20260503010427 | 43 | 266 | 0.0 | 0.0 | 0.03 | 0.03 | 0.00 | 88 | 1010.7 |
| 20260503010123 | 43 | 266 | 0.0 | 0.0 | 0.03 | 0.03 | 0.00 | 88 | 1010.7 |
| 20260503005820 | 43 | 266 | 0.0 | 0.0 | 0.03 | 0.03 | 0.00 | 88 | 1010.7 |
| 20260503005517 | 43 | 263 | 0.0 | 0.0 | 0.03 | 0.03 | 0.00 | 88 | 1010.5 |
| 20260503005213 | 43 | 258 | 0.0 | 0.0 | 0.03 | 0.03 | 0.00 | 88 | 1010.8 |
| 20260503004910 | 44 | 254 | 0.0 | 0.0 | 0.03 | 0.03 | 0.00 | 87 | 1010.7 |
| 20260503004607 | 44 | 248 | 0.0 | 0.0 | 0.03 | 0.03 | 0.00 | 87 | 1010.6 |
| 20260503004303 | 43 | 239 | 0.0 | 0.0 | 0.03 | 0.03 | 0.00 | 86 | 1010.8 |
| 20260503004000 | 44 | 235 | 0.0 | 0.0 | 0.03 | 0.03 | 0.00 | 87 | 1010.8 |
| 20260503003657 | 44 | 226 | 0.0 | 0.0 | 0.03 | 0.03 | 0.00 | 87 | 1010.8 |
| 20260503003353 | 44 | 223 | 0.0 | 0.0 | 0.03 | 0.03 | 0.00 | 87 | 1010.9 |
| 20260503003050 | 44 | 219 | 0.0 | 0.0 | 0.03 | 0.03 | 0.00 | 86 | 1010.9 |
| 20260503002747 | 44 | 214 | 0.0 | 0.0 | 0.03 | 0.03 | 0.00 | 86 | 1011.0 |
| 20260503002443 | 44 | 209 | 0.0 | 0.0 | 0.03 | 0.03 | 0.00 | 87 | 1010.9 |
| 20260503002140 | 44 | 199 | 0.0 | 0.0 | 0.03 | 0.03 | 0.00 | 87 | 1011.0 |
| 20260503001837 | 44 | 178 | 0.0 | 0.0 | 0.03 | 0.03 | 0.00 | 87 | 1010.8 |
| 20260503001534 | 44 | 146 | 0.0 | 0.0 | 0.03 | 0.03 | 0.00 | 86 | 1011.0 |
| 20260503001230 | 44 | 126 | 0.0 | 0.0 | 0.03 | 0.03 | 0.00 | 85 | 1010.9 |
| 20260503000927 | 44 | 118 | 0.0 | 0.0 | 0.03 | 0.03 | 0.00 | 86 | 1011.0 |
| 20260503000623 | 44 | 109 | 0.0 | 0.0 | 0.03 | 0.03 | 0.00 | 86 | 1010.9 |
| 20260503000320 | 44 | 104 | 0.0 | 0.0 | 0.03 | 0.03 | 0.00 | 85 | 1011.0 |
| 20260503000017 | 44 | 103 | 0.0 | 0.0 | 0.03 | 0.03 | 0.00 | 85 | 1011.0 |
| 20260502235713 | 44 | 101 | 0.0 | 0.0 | 0.03 | 0.03 | 0.00 | 85 | 1011.2 |
| 20260502235408 | 44 | 98 | 0.0 | 0.0 | 0.03 | 0.03 | 0.00 | 85 | 1011.0 |
| 20260502235105 | 44 | 95 | 0.0 | 0.0 | 0.03 | 0.03 | 0.00 | 84 | 1010.9 |
| 20260502234802 | 45 | 92 | 0.0 | 0.0 | 0.03 | 0.03 | 0.00 | 84 | 1011.1 |
| 20260502234458 | 45 | 90 | 0.0 | 0.0 | 0.03 | 0.03 | 0.00 | 82 | 1011.0 |
| 20260502234155 | 45 | 89 | 0.0 | 0.0 | 0.03 | 0.03 | 0.00 | 84 | 1011.3 |
| 20260502233851 | 46 | 87 | 0.0 | 0.0 | 0.03 | 0.03 | 0.00 | 84 | 1011.2 |
| 20260502233548 | 46 | 86 | 0.0 | 0.0 | 0.03 | 0.03 | 0.00 | 84 | 1011.1 |
| 20260502233245 | 46 | 86 | 0.0 | 0.0 | 0.03 | 0.03 | 0.00 | 83 | 1011.3 |
| 20260502232941 | 46 | 86 | 0.0 | 0.0 | 0.03 | 0.03 | 0.00 | 83 | 1011.2 |
| 20260502232638 | 47 | 86 | 0.0 | 1.0 | 0.03 | 0.03 | 0.00 | 81 | 1011.3 |
| 20260502232334 | 46 | 86 | 0.0 | 2.0 | 0.03 | 0.03 | 0.00 | 82 | 1011.2 |
| 20260502232031 | 46 | 86 | 1.0 | 2.0 | 0.03 | 0.03 | 0.00 | 83 | 1011.2 |
| 20260502231728 | 45 | 86 | 0.0 | 0.0 | 0.03 | 0.03 | 0.00 | 84 | 1011.4 |
| 20260502231424 | 46 | 86 | 0.0 | 0.0 | 0.03 | 0.03 | 0.00 | 83 | 1011.4 |
| 20260502231121 | 46 | 86 | 0.0 | 0.0 | 0.03 | 0.03 | 0.00 | 84 | 1011.4 |
| 20260502230818 | 46 | 86 | 0.0 | 0.0 | 0.03 | 0.03 | 0.00 | 83 | 1011.1 |
| 20260502230514 | 47 | 86 | 0.0 | 0.0 | 0.03 | 0.03 | 0.00 | 83 | 1011.5 |
| 20260502230211 | 47 | 86 | 0.0 | 0.0 | 0.03 | 0.03 | 0.00 | 82 | 1011.2 |
| 20260502225908 | 47 | 86 | 0.0 | 0.0 | 0.03 | 0.03 | 0.00 | 82 | 1011.5 |
| 20260502225604 | 47 | 86 | 0.0 | 0.0 | 0.03 | 0.03 | 0.00 | 81 | 1011.2 |
| 20260502225301 | 47 | 86 | 0.0 | 0.0 | 0.03 | 0.03 | 0.00 | 81 | 1011.3 |
| 20260502224958 | 47 | 86 | 0.0 | 0.0 | 0.03 | 0.03 | 0.00 | 82 | 1011.5 |
| 20260502224654 | 47 | 86 | 0.0 | 0.0 | 0.03 | 0.03 | 0.00 | 82 | 1011.4 |
| 20260502224351 | 47 | 86 | 0.0 | 0.0 | 0.03 | 0.03 | 0.00 | 82 | 1011.5 |
| 20260502224047 | 47 | 86 | 0.0 | 0.0 | 0.03 | 0.03 | 0.00 | 81 | 1011.5 |
| 20260502223744 | 47 | 86 | 0.0 | 0.0 | 0.03 | 0.03 | 0.00 | 80 | 1011.4 |
| 20260502223441 | 47 | 86 | 0.0 | 0.0 | 0.03 | 0.03 | 0.00 | 80 | 1011.5 |
| 20260502223137 | 47 | 86 | 0.0 | 0.0 | 0.03 | 0.03 | 0.00 | 81 | 1011.5 |
| 20260502222834 | 47 | 86 | 0.0 | 0.0 | 0.03 | 0.03 | 0.00 | 80 | 1011.5 |
| 20260502222531 | 47 | 86 | 0.0 | 0.0 | 0.03 | 0.03 | 0.00 | 80 | 1011.4 |
| 20260502222227 | 48 | 86 | 0.0 | 0.0 | 0.03 | 0.03 | 0.00 | 80 | 1011.5 |
| 20260502221924 | 48 | 86 | 0.0 | 0.0 | 0.03 | 0.03 | 0.00 | 79 | 1011.7 |
| 20260502221621 | 48 | 86 | 0.0 | 0.0 | 0.03 | 0.03 | 0.00 | 78 | 1011.6 |
| 20260502221318 | 49 | 86 | 0.0 | 0.0 | 0.03 | 0.03 | 0.00 | 77 | 1011.6 |
| 20260502221014 | 49 | 86 | 0.0 | 0.0 | 0.03 | 0.03 | 0.00 | 79 | 1011.6 |
| 20260502220711 | 49 | 86 | 0.0 | 0.0 | 0.03 | 0.03 | 0.00 | 79 | 1011.6 |
| 20260502220407 | 49 | 86 | 0.0 | 0.0 | 0.03 | 0.03 | 0.00 | 79 | 1011.7 |
| 20260502220104 | 49 | 86 | 0.0 | 0.0 | 0.03 | 0.03 | 0.00 | 78 | 1011.6 |
| 20260502215801 | 49 | 86 | 0.0 | 0.0 | 0.03 | 0.03 | 0.00 | 76 | 1011.5 |
| 20260502215458 | 49 | 86 | 0.0 | 0.0 | 0.03 | 0.03 | 0.00 | 77 | 1011.7 |
| 20260502215154 | 49 | 86 | 0.0 | 0.0 | 0.03 | 0.03 | 0.00 | 79 | 1011.5 |
| 20260502214851 | 49 | 86 | 0.0 | 0.0 | 0.03 | 0.03 | 0.00 | 78 | 1011.7 |
| 20260502214548 | 49 | 86 | 0.0 | 0.0 | 0.03 | 0.03 | 0.00 | 76 | 1011.5 |
| 20260502214244 | 49 | 86 | 0.0 | 0.0 | 0.03 | 0.03 | 0.00 | 75 | 1011.8 |
| 20260502213941 | 50 | 86 | 0.0 | 0.0 | 0.03 | 0.03 | 0.00 | 76 | 1011.6 |
| 20260502213638 | 50 | 86 | 0.0 | 0.0 | 0.03 | 0.03 | 0.00 | 77 | 1011.5 |
| 20260502213334 | 50 | 86 | 0.0 | 0.0 | 0.03 | 0.03 | 0.00 | 76 | 1011.6 |
| 20260502213031 | 50 | 86 | 0.0 | 0.0 | 0.03 | 0.03 | 0.00 | 76 | 1011.6 |
| 20260502212727 | 50 | 86 | 0.0 | 0.0 | 0.03 | 0.03 | 0.00 | 75 | 1011.5 |
| 20260502212424 | 50 | 86 | 0.0 | 0.0 | 0.03 | 0.03 | 0.00 | 75 | 1011.5 |
| 20260502212121 | 50 | 86 | 0.0 | 0.0 | 0.03 | 0.03 | 0.00 | 75 | 1011.5 |
| 20260502211817 | 50 | 86 | 0.0 | 0.0 | 0.03 | 0.03 | 0.00 | 75 | 1011.5 |
| 20260502211514 | 50 | 86 | 0.0 | 0.0 | 0.03 | 0.03 | 0.00 | 73 | 1011.5 |
| 20260502211211 | 50 | 86 | 0.0 | 0.0 | 0.03 | 0.03 | 0.00 | 75 | 1011.7 |
| 20260502210907 | 51 | 86 | 0.0 | 0.0 | 0.03 | 0.03 | 0.00 | 75 | 1011.4 |
| 20260502210604 | 51 | 86 | 0.0 | 0.0 | 0.03 | 0.03 | 0.00 | 74 | 1011.5 |
| 20260502210301 | 51 | 86 | 0.0 | 0.0 | 0.03 | 0.03 | 0.00 | 74 | 1011.6 |
| 20260502205957 | 51 | 86 | 0.0 | 0.0 | 0.03 | 0.03 | 0.00 | 74 | 1011.6 |
| 20260502205654 | 52 | 86 | 0.0 | 0.0 | 0.03 | 0.03 | 0.00 | 74 | 1011.7 |
| 20260502205351 | 52 | 86 | 0.0 | 0.0 | 0.03 | 0.03 | 0.00 | 73 | 1011.7 |
| 20260502205047 | 52 | 86 | 0.0 | 0.0 | 0.03 | 0.03 | 0.00 | 72 | 1011.6 |
| 20260502204744 | 53 | 86 | 0.0 | 0.0 | 0.03 | 0.03 | 0.00 | 72 | 1011.6 |
| 20260502204441 | 52 | 86 | 0.0 | 0.0 | 0.03 | 0.03 | 0.00 | 73 | 1011.8 |
| 20260502204137 | 52 | 86 | 0.0 | 0.0 | 0.03 | 0.03 | 0.00 | 73 | 1011.7 |
| 20260502203834 | 52 | 86 | 0.0 | 0.0 | 0.03 | 0.03 | 0.00 | 71 | 1011.8 |
| 20260502203531 | 53 | 86 | 0.0 | 0.0 | 0.03 | 0.03 | 0.00 | 71 | 1011.7 |
| 20260502203227 | 53 | 86 | 0.0 | 0.0 | 0.03 | 0.03 | 0.00 | 71 | 1011.9 |
| 20260502202924 | 53 | 86 | 0.0 | 0.0 | 0.03 | 0.03 | 0.00 | 70 | 1011.8 |
| 20260502202621 | 53 | 86 | 0.0 | 0.0 | 0.03 | 0.03 | 0.00 | 71 | 1011.7 |
| 20260502202318 | 53 | 86 | 0.0 | 0.0 | 0.03 | 0.03 | 0.00 | 72 | 1011.7 |
| 20260502202014 | 53 | 86 | 0.0 | 0.0 | 0.03 | 0.03 | 0.00 | 69 | 1011.8 |
| 20260502201711 | 53 | 86 | 0.0 | 0.0 | 0.03 | 0.03 | 0.00 | 69 | 1011.7 |
| 20260502201408 | 54 | 86 | 0.0 | 0.0 | 0.03 | 0.03 | 0.00 | 69 | 1011.8 |
| 20260502201104 | 54 | 86 | 0.0 | 0.0 | 0.03 | 0.03 | 0.00 | 67 | 1011.8 |
| 20260502200801 | 55 | 86 | 0.0 | 0.0 | 0.03 | 0.03 | 0.00 | 67 | 1011.7 |
| 20260502200458 | 55 | 86 | 0.0 | 0.0 | 0.03 | 0.03 | 0.00 | 65 | 1011.8 |
| 20260502200154 | 55 | 86 | 0.0 | 0.0 | 0.03 | 0.03 | 0.00 | 63 | 1011.9 |
| 20260502195851 | 55 | 86 | 0.0 | 0.0 | 0.03 | 0.03 | 0.00 | 65 | 1011.7 |
| 20260502195547 | 55 | 86 | 0.0 | 0.0 | 0.03 | 0.03 | 0.00 | 65 | 1011.7 |
| 20260502195244 | 56 | 86 | 0.0 | 0.0 | 0.03 | 0.03 | 0.00 | 66 | 1011.8 |
| 20260502194941 | 56 | 86 | 0.0 | 0.0 | 0.03 | 0.03 | 0.00 | 64 | 1011.6 |
| 20260502194637 | 56 | 86 | 0.0 | 0.0 | 0.03 | 0.03 | 0.00 | 64 | 1011.5 |
| 20260502194334 | 56 | 86 | 0.0 | 0.0 | 0.03 | 0.03 | 0.00 | 64 | 1011.7 |
| 20260502194030 | 56 | 86 | 0.0 | 0.0 | 0.03 | 0.03 | 0.00 | 64 | 1011.7 |
| 20260502193727 | 56 | 86 | 0.0 | 0.0 | 0.03 | 0.03 | 0.00 | 66 | 1011.5 |
| 20260502193424 | 56 | 86 | 0.0 | 0.0 | 0.03 | 0.03 | 0.00 | 64 | 1011.7 |
| 20260502193120 | 57 | 86 | 0.0 | 0.0 | 0.03 | 0.03 | 0.00 | 66 | 1011.6 |
| 20260502192817 | 57 | 86 | 0.0 | 0.0 | 0.03 | 0.03 | 0.00 | 65 | 1011.6 |
| 20260502192514 | 57 | 86 | 0.0 | 0.0 | 0.03 | 0.03 | 0.00 | 62 | 1011.5 |
| 20260502192210 | 57 | 86 | 0.0 | 0.0 | 0.03 | 0.03 | 0.00 | 62 | 1011.4 |
| 20260502191907 | 58 | 86 | 0.0 | 0.0 | 0.03 | 0.03 | 0.00 | 59 | 1011.4 |
| 20260502191603 | 58 | 86 | 0.0 | 0.0 | 0.03 | 0.03 | 0.00 | 59 | 1011.3 |
| 20260502191300 | 59 | 86 | 0.0 | 0.0 | 0.03 | 0.03 | 0.00 | 60 | 1011.3 |
| 20260502190957 | 59 | 84 | 0.0 | 0.0 | 0.03 | 0.03 | 0.00 | 59 | 1011.4 |
| 20260502190653 | 59 | 84 | 0.0 | 0.0 | 0.03 | 0.03 | 0.00 | 59 | 1011.5 |
| 20260502190350 | 60 | 83 | 0.0 | 0.0 | 0.03 | 0.03 | 0.00 | 58 | 1011.3 |
| 20260502190047 | 60 | 82 | 0.0 | 0.0 | 0.03 | 0.03 | 0.00 | 57 | 1011.4 |
| 20260502185743 | 60 | 82 | 0.0 | 0.0 | 0.03 | 0.03 | 0.00 | 58 | 1011.3 |
| 20260502185440 | 61 | 81 | 0.0 | 0.0 | 0.03 | 0.03 | 0.00 | 53 | 1011.2 |
| 20260502185137 | 61 | 81 | 0.0 | 0.0 | 0.03 | 0.03 | 0.00 | 55 | 1011.2 |
| 20260502184832 | 61 | 80 | 0.0 | 0.0 | 0.03 | 0.03 | 0.00 | 53 | 1011.4 |
| 20260502184529 | 62 | 80 | 0.0 | 0.0 | 0.03 | 0.03 | 0.00 | 53 | 1011.2 |
| 20260502184225 | 62 | 79 | 0.0 | 0.0 | 0.03 | 0.03 | 0.00 | 53 | 1011.3 |
| 20260502183922 | 62 | 78 | 0.0 | 0.0 | 0.03 | 0.03 | 0.00 | 51 | 1010.9 |
| 20260502183619 | 62 | 77 | 0.0 | 0.0 | 0.03 | 0.03 | 0.00 | 51 | 1011.0 |
| 20260502183315 | 63 | 75 | 0.0 | 0.0 | 0.03 | 0.03 | 0.00 | 51 | 1010.9 |
| 20260502183012 | 63 | 74 | 0.0 | 0.0 | 0.03 | 0.03 | 0.00 | 50 | 1010.9 |
| 20260502182709 | 64 | 71 | 0.0 | 0.0 | 0.03 | 0.03 | 0.00 | 49 | 1010.7 |
| 20260502182405 | 64 | 68 | 0.0 | 0.0 | 0.03 | 0.03 | 0.00 | 49 | 1010.7 |
| 20260502182102 | 65 | 62 | 0.0 | 0.0 | 0.03 | 0.03 | 0.00 | 48 | 1010.8 |
| 20260502181759 | 66 | 56 | 0.0 | 0.0 | 0.03 | 0.03 | 0.00 | 47 | 1010.8 |
| 20260502181455 | 66 | 44 | 0.0 | 0.0 | 0.03 | 0.03 | 0.00 | 46 | 1010.9 |
| 20260502181152 | 67 | 25 | 0.0 | 2.0 | 0.03 | 0.03 | 0.00 | 44 | 1010.6 |
| 20260502180849 | 67 | 3 | 0.0 | 1.0 | 0.03 | 0.03 | 0.00 | 44 | 1010.5 |
| 20260502180545 | 68 | 344 | 0.0 | 0.0 | 0.03 | 0.03 | 0.00 | 44 | 1010.5 |
| 20260502180242 | 68 | 318 | 0.0 | 0.0 | 0.03 | 0.03 | 0.00 | 44 | 1010.4 |
| 20260502170438 | 75 | 264 | 1.0 | 4.0 | 0.03 | 0.03 | 0.00 | 34 | 1010.4 |
| 20260502170135 | 75 | 264 | 2.0 | 4.0 | 0.03 | 0.03 | 0.00 | 33 | 1010.2 |
| 20260502164315 | 76 | 266 | 0.0 | 4.0 | 0.03 | 0.03 | 0.00 | 32 | 1010.3 |
| 20260502164011 | 77 | 267 | 1.0 | 3.0 | 0.03 | 0.03 | 0.00 | 32 | 1010.3 |
| 20260502163708 | 77 | 268 | 0.0 | 3.0 | 0.03 | 0.03 | 0.00 | 32 | 1010.4 |
| 20260502163404 | 76 | 265 | 1.0 | 3.0 | 0.03 | 0.03 | 0.00 | 32 | 1010.2 |
| 20260502163101 | 76 | 265 | 1.0 | 3.0 | 0.03 | 0.03 | 0.00 | 32 | 1010.3 |
| 20260502162758 | 76 | 266 | 1.0 | 4.0 | 0.03 | 0.03 | 0.00 | 32 | 1010.5 |
| 20260502162454 | 77 | 268 | 3.0 | 4.0 | 0.03 | 0.03 | 0.00 | 32 | 1010.4 |
| 20260502162151 | 77 | 268 | 1.0 | 4.0 | 0.03 | 0.03 | 0.00 | 32 | 1010.6 |
| 20260502161848 | 77 | 270 | 2.0 | 3.0 | 0.03 | 0.03 | 0.00 | 31 | 1010.6 |
| 20260502161544 | 78 | 271 | 0.0 | 3.0 | 0.03 | 0.03 | 0.00 | 31 | 1010.6 |
| 20260502161241 | 80 | 271 | 2.0 | 3.0 | 0.03 | 0.03 | 0.00 | 30 | 1010.4 |
| 20260502160938 | 79 | 272 | 0.0 | 2.0 | 0.03 | 0.03 | 0.00 | 29 | 1010.8 |
| 20260502160634 | 78 | 270 | 0.0 | 3.0 | 0.03 | 0.03 | 0.00 | 31 | 1010.7 |
| 20260502160331 | 78 | 270 | 2.0 | 3.0 | 0.03 | 0.03 | 0.00 | 31 | 1010.8 |
| 20260502152044 | 80 | 270 | 0.0 | 2.0 | 0.03 | 0.03 | 0.00 | 31 | 1011.0 |
| 20260502151741 | 80 | 270 | 0.0 | 2.0 | 0.03 | 0.03 | 0.00 | 29 | 1011.0 |
| 20260502151437 | 80 | 267 | 0.0 | 2.0 | 0.03 | 0.03 | 0.00 | 29 | 1011.0 |
| 20260502151134 | 78 | 266 | 0.0 | 3.0 | 0.03 | 0.03 | 0.00 | 30 | 1011.3 |
| 20260502150831 | 78 | 264 | 1.0 | 3.0 | 0.03 | 0.03 | 0.00 | 31 | 1011.0 |
| 20260502150527 | 78 | 264 | 1.0 | 5.0 | 0.03 | 0.03 | 0.00 | 31 | 1011.4 |
| 20260502150224 | 79 | 265 | 0.0 | 5.0 | 0.03 | 0.03 | 0.00 | 30 | 1011.2 |
| 20260502140117 | 78 | 263 | 0.0 | 3.0 | 0.03 | 0.03 | 0.00 | 31 | 1011.9 |
| 20260502130616 | 77 | 264 | 0.0 | 3.0 | 0.03 | 0.03 | 0.00 | 32 | 1012.4 |
| 20260502130313 | 78 | 262 | 1.0 | 3.0 | 0.03 | 0.03 | 0.00 | 30 | 1012.5 |
| 20260502123543 | 77 | 263 | 1.0 | 3.0 | 0.03 | 0.03 | 0.00 | 31 | 1012.9 |
| 20260502123239 | 75 | 263 | 1.0 | 4.0 | 0.03 | 0.03 | 0.00 | 31 | 1012.8 |
| 20260502122936 | 76 | 263 | 3.0 | 4.0 | 0.03 | 0.03 | 0.00 | 30 | 1013.0 |
| 20260502122633 | 76 | 262 | 1.0 | 3.0 | 0.03 | 0.03 | 0.00 | 31 | 1012.9 |
| 20260502122329 | 78 | 261 | 2.0 | 3.0 | 0.03 | 0.03 | 0.00 | 29 | 1013.0 |
| 20260502122026 | 77 | 260 | 1.0 | 2.0 | 0.03 | 0.03 | 0.00 | 31 | 1013.0 |
| 20260502121723 | 77 | 259 | 0.0 | 5.0 | 0.03 | 0.03 | 0.00 | 31 | 1013.0 |
| 20260502121419 | 77 | 260 | 0.0 | 10.0 | 0.03 | 0.03 | 0.00 | 32 | 1013.0 |
| 20260502121114 | 75 | 260 | 3.0 | 10.0 | 0.03 | 0.03 | 0.00 | 33 | 1013.0 |
| 20260502120811 | 76 | 259 | 1.0 | 5.0 | 0.03 | 0.03 | 0.00 | 34 | 1013.3 |
| 20260502120508 | 75 | 258 | 3.0 | 5.0 | 0.03 | 0.03 | 0.00 | 31 | 1013.2 |
| 20260502120204 | 75 | 258 | 4.0 | 6.0 | 0.03 | 0.03 | 0.00 | 30 | 1013.1 |
| 20260502115901 | 75 | 258 | 0.0 | 5.0 | 0.03 | 0.03 | 0.00 | 29 | 1008.9 |
| 20260502115557 | 75 | 259 | 3.0 | 4.0 | 0.03 | 0.03 | 0.00 | 29 | 1008.8 |
| 20260502115254 | 75 | 258 | 2.0 | 6.0 | 0.03 | 0.03 | 0.00 | 28 | 1008.8 |
| 20260502114950 | 75 | 257 | 1.0 | 6.0 | 0.03 | 0.03 | 0.00 | 30 | 1008.8 |
| 20260502114647 | 75 | 257 | 5.0 | 9.0 | 0.03 | 0.03 | 0.00 | 31 | 1009.1 |
| 20260502114344 | 75 | 257 | 1.0 | 5.0 | 0.03 | 0.03 | 0.00 | 30 | 1009.1 |
| 20260502114040 | 75 | 257 | 2.0 | 4.0 | 0.03 | 0.03 | 0.00 | 30 | 1009.0 |
| 20260502113737 | 73 | 259 | 1.0 | 8.0 | 0.03 | 0.03 | 0.00 | 32 | 1009.1 |
| 20260502113434 | 75 | 257 | 6.0 | 9.0 | 0.03 | 0.03 | 0.00 | 31 | 1009.2 |
| 20260502113130 | 74 | 256 | 3.0 | 9.0 | 0.03 | 0.03 | 0.00 | 31 | 1009.3 |
| 20260502112827 | 74 | 255 | 4.0 | 5.0 | 0.03 | 0.03 | 0.00 | 31 | 1009.3 |
| 20260502112524 | 74 | 255 | 3.0 | 5.0 | 0.03 | 0.03 | 0.00 | 31 | 1009.3 |
| 20260502112220 | 74 | 255 | 3.0 | 5.0 | 0.03 | 0.03 | 0.00 | 32 | 1009.2 |
| 20260502111917 | 75 | 256 | 0.0 | 5.0 | 0.03 | 0.03 | 0.00 | 31 | 1009.3 |
| 20260502111614 | 75 | 255 | 3.0 | 5.0 | 0.03 | 0.03 | 0.00 | 32 | 1009.3 |
| 20260502111310 | 74 | 255 | 4.0 | 5.0 | 0.03 | 0.03 | 0.00 | 33 | 1009.2 |
| 20260502111007 | 74 | 257 | 1.0 | 4.0 | 0.03 | 0.03 | 0.00 | 32 | 1009.3 |
| 20260502110703 | 73 | 255 | 3.0 | 4.0 | 0.03 | 0.03 | 0.00 | 33 | 1009.6 |
| 20260502110400 | 73 | 255 | 1.0 | 5.0 | 0.03 | 0.03 | 0.00 | 33 | 1009.3 |
| 20260502110057 | 74 | 254 | 2.0 | 4.0 | 0.03 | 0.03 | 0.00 | 32 | 1009.4 |
| 20260502105754 | 73 | 254 | 1.0 | 3.0 | 0.03 | 0.03 | 0.00 | 33 | 1009.7 |
| 20260502105450 | 73 | 251 | 2.0 | 5.0 | 0.03 | 0.03 | 0.00 | 33 | 1009.7 |
| 20260502105147 | 73 | 250 | 1.0 | 6.0 | 0.03 | 0.03 | 0.00 | 34 | 1009.6 |
| 20260502104843 | 74 | 249 | 5.0 | 6.0 | 0.03 | 0.03 | 0.00 | 34 | 1009.7 |
| 20260502104540 | 73 | 248 | 3.0 | 5.0 | 0.03 | 0.03 | 0.00 | 34 | 1009.7 |
| 20260502104237 | 73 | 248 | 3.0 | 8.0 | 0.03 | 0.03 | 0.00 | 35 | 1009.7 |
| 20260502103933 | 73 | 248 | 0.0 | 5.0 | 0.03 | 0.03 | 0.00 | 34 | 1009.8 |
| 20260502103630 | 73 | 243 | 3.0 | 5.0 | 0.03 | 0.03 | 0.00 | 36 | 1009.7 |
| 20260502103327 | 74 | 239 | 0.0 | 4.0 | 0.03 | 0.03 | 0.00 | 34 | 1009.7 |
| 20260502103023 | 74 | 237 | 0.0 | 4.0 | 0.03 | 0.03 | 0.00 | 37 | 1009.9 |
| 20260502102720 | 73 | 235 | 0.0 | 4.0 | 0.03 | 0.03 | 0.00 | 37 | 1010.0 |
| 20260502102416 | 72 | 233 | 3.0 | 8.0 | 0.03 | 0.03 | 0.00 | 36 | 1009.8 |
| 20260502102113 | 73 | 231 | 4.0 | 8.0 | 0.03 | 0.03 | 0.00 | 37 | 1009.8 |
| 20260502101810 | 72 | 226 | 3.0 | 6.0 | 0.03 | 0.03 | 0.00 | 35 | 1010.0 |
| 20260502101506 | 71 | 226 | 3.0 | 6.0 | 0.03 | 0.03 | 0.00 | 37 | 1010.1 |
| 20260502101203 | 71 | 224 | 1.0 | 10.0 | 0.03 | 0.03 | 0.00 | 38 | 1010.0 |
| 20260502100900 | 71 | 215 | 0.0 | 3.0 | 0.03 | 0.03 | 0.00 | 36 | 1009.9 |
| 20260502100556 | 71 | 217 | 2.0 | 8.0 | 0.03 | 0.03 | 0.00 | 38 | 1010.2 |
| 20260502100253 | 71 | 213 | 1.0 | 4.0 | 0.03 | 0.03 | 0.00 | 37 | 1010.1 |
| 20260502091359 | 71 | 115 | 0.0 | 3.0 | 0.03 | 0.03 | 0.00 | 36 | 1010.8 |
| 20260502091056 | 70 | 123 | 1.0 | 8.0 | 0.03 | 0.03 | 0.00 | 39 | 1010.7 |
| 20260502090752 | 71 | 112 | 5.0 | 8.0 | 0.03 | 0.03 | 0.00 | 37 | 1010.8 |
| 20260502090449 | 70 | 108 | 0.0 | 2.0 | 0.03 | 0.03 | 0.00 | 38 | 1010.9 |
| 20260502090146 | 70 | 112 | 2.0 | 4.0 | 0.03 | 0.03 | 0.00 | 37 | 1010.8 |
| 20260502071448 | 66 | 88 | 0.0 | 2.0 | 0.03 | 0.03 | 0.00 | 49 | 1011.3 |
| 20260502071144 | 66 | 87 | 0.0 | 0.0 | 0.03 | 0.03 | 0.00 | 48 | 1011.4 |
| 20260502070841 | 65 | 87 | 0.0 | 0.0 | 0.03 | 0.03 | 0.00 | 50 | 1011.6 |
| 20260502070538 | 65 | 87 | 0.0 | 0.0 | 0.03 | 0.03 | 0.00 | 50 | 1011.6 |
| 20260502070234 | 64 | 87 | 0.0 | 0.0 | 0.03 | 0.03 | 0.00 | 52 | 1011.6 |
| 20260502065931 | 64 | 87 | 0.0 | 2.0 | 0.03 | 0.03 | 0.00 | 52 | 1011.3 |
| 20260502065628 | 63 | 87 | 0.0 | 2.0 | 0.03 | 0.03 | 0.00 | 54 | 1011.5 |
| 20260502065324 | 63 | 86 | 0.0 | 2.0 | 0.03 | 0.03 | 0.00 | 52 | 1011.5 |
| 20260502065021 | 62 | 86 | 0.0 | 2.0 | 0.03 | 0.03 | 0.00 | 55 | 1011.6 |
| 20260502064718 | 63 | 86 | 0.0 | 1.0 | 0.03 | 0.03 | 0.00 | 54 | 1011.7 |
| 20260502064414 | 62 | 87 | 0.0 | 0.0 | 0.03 | 0.03 | 0.00 | 55 | 1011.7 |
| 20260502064111 | 63 | 88 | 0.0 | 0.0 | 0.03 | 0.03 | 0.00 | 54 | 1011.5 |
| 20260502063807 | 62 | 89 | 0.0 | 0.0 | 0.03 | 0.03 | 0.00 | 54 | 1011.6 |
| 20260502063504 | 62 | 90 | 0.0 | 0.0 | 0.03 | 0.03 | 0.00 | 56 | 1011.7 |
| 20260502063201 | 61 | 90 | 0.0 | 0.0 | 0.03 | 0.03 | 0.00 | 56 | 1011.8 |
| 20260502062857 | 60 | 92 | 0.0 | 0.0 | 0.03 | 0.03 | 0.00 | 57 | 1011.6 |
| 20260502062554 | 58 | 94 | 0.0 | 2.0 | 0.03 | 0.03 | 0.00 | 61 | 1011.6 |
| 20260502062251 | 58 | 96 | 0.0 | 2.0 | 0.03 | 0.03 | 0.00 | 61 | 1011.6 |
| 20260502061947 | 57 | 97 | 0.0 | 2.0 | 0.03 | 0.03 | 0.00 | 61 | 1011.6 |
| 20260502061644 | 57 | 97 | 0.0 | 2.0 | 0.03 | 0.03 | 0.00 | 62 | 1011.7 |
| 20260502061341 | 56 | 98 | 1.0 | 2.0 | 0.03 | 0.03 | 0.00 | 63 | 1011.7 |
| 20260502061037 | 56 | 100 | 0.0 | 2.0 | 0.03 | 0.03 | 0.00 | 63 | 1011.6 |
| 20260502060734 | 55 | 102 | 0.0 | 3.0 | 0.03 | 0.03 | 0.00 | 63 | 1011.9 |
| 20260502060430 | 55 | 106 | 1.0 | 3.0 | 0.03 | 0.03 | 0.00 | 64 | 1011.8 |
| 20260502060127 | 55 | 105 | 2.0 | 3.0 | 0.03 | 0.03 | 0.00 | 65 | 1011.9 |
| 20260502055824 | 54 | 99 | 2.0 | 3.0 | 0.03 | 0.03 | 0.00 | 65 | 1011.9 |
| 20260502055520 | 54 | 79 | 2.0 | 3.0 | 0.03 | 0.03 | 0.00 | 65 | 1011.6 |
| 20260502055217 | 53 | 26 | 0.0 | 3.0 | 0.03 | 0.03 | 0.00 | 67 | 1011.8 |
| 20260502054914 | 53 | 305 | 0.0 | 0.0 | 0.03 | 0.03 | 0.00 | 67 | 1012.0 |
| 20260502054610 | 52 | 279 | 0.0 | 2.0 | 0.03 | 0.03 | 0.00 | 68 | 1012.1 |
| 20260502054307 | 52 | 273 | 0.0 | 1.0 | 0.03 | 0.03 | 0.00 | 70 | 1011.9 |
| 20260502054004 | 51 | 273 | 0.0 | 1.0 | 0.03 | 0.03 | 0.00 | 70 | 1011.9 |
| 20260502053700 | 51 | 272 | 0.0 | 0.0 | 0.03 | 0.03 | 0.00 | 73 | 1011.8 |
| 20260502053357 | 51 | 270 | 0.0 | 0.0 | 0.03 | 0.03 | 0.00 | 72 | 1011.7 |
| 20260502053054 | 50 | 269 | 0.0 | 0.0 | 0.03 | 0.03 | 0.00 | 74 | 1011.9 |
| 20260502052750 | 49 | 269 | 0.0 | 0.0 | 0.03 | 0.03 | 0.00 | 75 | 1011.8 |
| 20260502052447 | 49 | 268 | 0.0 | 0.0 | 0.03 | 0.03 | 0.00 | 76 | 1011.8 |
| 20260502052143 | 48 | 268 | 0.0 | 0.0 | 0.03 | 0.03 | 0.00 | 75 | 1012.0 |
| 20260502051840 | 48 | 268 | 0.0 | 1.0 | 0.03 | 0.03 | 0.00 | 77 | 1011.9 |
| 20260502051537 | 47 | 267 | 0.0 | 1.0 | 0.03 | 0.03 | 0.00 | 77 | 1012.1 |
| 20260502051233 | 47 | 267 | 0.0 | 0.0 | 0.03 | 0.03 | 0.00 | 78 | 1011.8 |
| 20260502050930 | 46 | 267 | 0.0 | 0.0 | 0.03 | 0.03 | 0.00 | 79 | 1011.7 |
| 20260502050626 | 46 | 266 | 0.0 | 0.0 | 0.03 | 0.03 | 0.00 | 79 | 1011.8 |
| 20260502050323 | 45 | 266 | 0.0 | 0.0 | 0.03 | 0.03 | 0.00 | 80 | 1011.9 |
| 20260502050020 | 45 | 266 | 0.0 | 0.0 | 0.03 | 0.03 | 0.00 | 81 | 1011.9 |
| 20260502045716 | 44 | 266 | 0.0 | 0.0 | 0.03 | 0.03 | 0.00 | 81 | 1012.0 |
| 20260502045413 | 44 | 266 | 0.0 | 0.0 | 0.03 | 0.03 | 0.00 | 82 | 1011.8 |
| 20260502045110 | 43 | 266 | 0.0 | 0.0 | 0.03 | 0.03 | 0.00 | 83 | 1012.0 |
| 20260502044806 | 43 | 266 | 0.0 | 0.0 | 0.03 | 0.03 | 0.00 | 84 | 1011.8 |
| 20260502044504 | 42 | 266 | 0.0 | 0.0 | 0.03 | 0.03 | 0.00 | 85 | 1011.8 |
| 20260502044200 | 42 | 266 | 0.0 | 0.0 | 0.03 | 0.03 | 0.00 | 87 | 1011.8 |
| 20260502043856 | 41 | 266 | 0.0 | 0.0 | 0.03 | 0.03 | 0.00 | 88 | 1011.8 |
| 20260502043553 | 40 | 266 | 0.0 | 0.0 | 0.03 | 0.03 | 0.00 | 89 | 1011.7 |
| 20260502043250 | 40 | 266 | 0.0 | 0.0 | 0.03 | 0.03 | 0.00 | 89 | 1011.7 |
| 20260502042946 | 40 | 266 | 0.0 | 0.0 | 0.03 | 0.03 | 0.00 | 90 | 1011.6 |
| 20260502042643 | 40 | 266 | 0.0 | 0.0 | 0.03 | 0.03 | 0.00 | 90 | 1011.7 |
| 20260502042339 | 40 | 266 | 0.0 | 0.0 | 0.03 | 0.03 | 0.00 | 90 | 1011.9 |
| 20260502042036 | 40 | 266 | 0.0 | 0.0 | 0.03 | 0.03 | 0.00 | 90 | 1011.7 |
| 20260502041733 | 40 | 266 | 0.0 | 0.0 | 0.03 | 0.03 | 0.00 | 90 | 1011.7 |
| 20260502041429 | 40 | 266 | 0.0 | 0.0 | 0.03 | 0.03 | 0.00 | 90 | 1011.6 |
| 20260502041126 | 40 | 266 | 0.0 | 0.0 | 0.03 | 0.03 | 0.00 | 90 | 1011.8 |
| 20260502040823 | 40 | 266 | 0.0 | 0.0 | 0.03 | 0.03 | 0.00 | 90 | 1011.7 |
| 20260502040519 | 39 | 266 | 0.0 | 0.0 | 0.03 | 0.03 | 0.00 | 90 | 1011.6 |
| 20260502040216 | 40 | 266 | 0.0 | 0.0 | 0.03 | 0.03 | 0.00 | 90 | 1011.5 |
| 20260502035913 | 39 | 266 | 0.0 | 0.0 | 0.03 | 0.03 | 0.00 | 90 | 1011.4 |
| 20260502035609 | 39 | 266 | 0.0 | 0.0 | 0.03 | 0.03 | 0.00 | 90 | 1011.6 |
| 20260502035306 | 39 | 266 | 0.0 | 0.0 | 0.03 | 0.03 | 0.00 | 90 | 1011.7 |
| 20260502035003 | 39 | 266 | 0.0 | 0.0 | 0.03 | 0.03 | 0.00 | 90 | 1011.5 |
| 20260502034659 | 39 | 266 | 0.0 | 0.0 | 0.03 | 0.03 | 0.00 | 90 | 1011.7 |
| 20260502034356 | 39 | 266 | 0.0 | 0.0 | 0.03 | 0.03 | 0.00 | 90 | 1011.6 |
| 20260502034053 | 39 | 266 | 0.0 | 0.0 | 0.03 | 0.03 | 0.00 | 90 | 1011.5 |
| 20260502033749 | 39 | 266 | 0.0 | 0.0 | 0.03 | 0.03 | 0.00 | 89 | 1011.6 |
| 20260502033446 | 39 | 266 | 0.0 | 0.0 | 0.03 | 0.03 | 0.00 | 89 | 1011.6 |
| 20260502033143 | 39 | 266 | 0.0 | 0.0 | 0.03 | 0.03 | 0.00 | 89 | 1011.6 |
| 20260502032839 | 39 | 266 | 0.0 | 0.0 | 0.03 | 0.03 | 0.00 | 89 | 1011.5 |
| 20260502032536 | 40 | 266 | 0.0 | 0.0 | 0.03 | 0.03 | 0.00 | 89 | 1011.5 |
| 20260502032233 | 40 | 266 | 0.0 | 0.0 | 0.03 | 0.03 | 0.00 | 89 | 1011.6 |
| 20260502031929 | 40 | 266 | 0.0 | 0.0 | 0.03 | 0.03 | 0.00 | 90 | 1011.4 |
| 20260502031626 | 39 | 266 | 0.0 | 0.0 | 0.03 | 0.03 | 0.00 | 90 | 1011.5 |
| 20260502031323 | 39 | 266 | 0.0 | 0.0 | 0.03 | 0.03 | 0.00 | 89 | 1011.4 |
| 20260502031019 | 38 | 266 | 0.0 | 0.0 | 0.03 | 0.03 | 0.00 | 88 | 1011.5 |
| 20260502030716 | 39 | 266 | 0.0 | 0.0 | 0.03 | 0.03 | 0.00 | 88 | 1011.5 |
| 20260502030412 | 39 | 266 | 0.0 | 0.0 | 0.03 | 0.03 | 0.00 | 88 | 1011.6 |
| 20260502030109 | 39 | 266 | 0.0 | 0.0 | 0.03 | 0.03 | 0.00 | 89 | 1011.6 |
| 20260502025806 | 40 | 266 | 0.0 | 0.0 | 0.03 | 0.03 | 0.00 | 89 | 1011.6 |
| 20260502025502 | 39 | 266 | 0.0 | 0.0 | 0.03 | 0.03 | 0.00 | 89 | 1011.6 |
| 20260502025159 | 39 | 266 | 0.0 | 0.0 | 0.03 | 0.03 | 0.00 | 89 | 1011.5 |
| 20260502024856 | 39 | 266 | 0.0 | 0.0 | 0.03 | 0.03 | 0.00 | 89 | 1011.6 |
| 20260502024552 | 39 | 266 | 0.0 | 0.0 | 0.03 | 0.03 | 0.00 | 89 | 1011.5 |
| 20260502024249 | 39 | 266 | 0.0 | 0.0 | 0.03 | 0.03 | 0.00 | 89 | 1011.4 |
| 20260502023946 | 39 | 266 | 0.0 | 0.0 | 0.03 | 0.03 | 0.00 | 89 | 1011.7 |
| 20260502023642 | 39 | 266 | 0.0 | 0.0 | 0.03 | 0.03 | 0.00 | 89 | 1011.5 |
| 20260502023339 | 39 | 266 | 0.0 | 0.0 | 0.03 | 0.03 | 0.00 | 89 | 1011.7 |
| 20260502023036 | 39 | 266 | 0.0 | 0.0 | 0.03 | 0.03 | 0.00 | 89 | 1011.7 |
| 20260502022732 | 39 | 266 | 0.0 | 0.0 | 0.03 | 0.03 | 0.00 | 89 | 1011.6 |
| 20260502022429 | 39 | 266 | 0.0 | 0.0 | 0.03 | 0.03 | 0.00 | 89 | 1011.5 |
| 20260502022126 | 39 | 266 | 0.0 | 0.0 | 0.03 | 0.03 | 0.00 | 89 | 1011.6 |
| 20260502021822 | 39 | 266 | 0.0 | 0.0 | 0.03 | 0.03 | 0.00 | 88 | 1011.7 |
| 20260502021519 | 39 | 266 | 0.0 | 0.0 | 0.03 | 0.03 | 0.00 | 88 | 1011.5 |